Weather History for KBBB - February, 2013

Change the Weather History Date:

Wednesday, February 20, 2013

  Actual Average Record
Temperature  
Mean Temperature -7 °F -  
Max Temperature 6 °F 30 °F 56 °F (1981)
Min Temperature -20 °F 10 °F -29 °F (2008)
Degree Days  
Heating Degree Days 72    
Moisture  
Dew Point -12 °F    
Average Humidity 74    
Maximum Humidity 84    
Minimum Humidity 65    
Precipitation  
Precipitation 0.00 in - - ()
Sea Level Pressure  
Sea Level Pressure 30.40 in    
Wind  
Wind Speed 5 mph (ESE)    
Max Wind Speed 8 mph    
Max Gust Speed -    
Visibility 10 miles    
Events      
Averages and records for this station are not official NWS values.
T = Trace of Precipitation, MM = Missing Value Source: NWS Daily Summary

Daily Weather History Graph

Daily Weather History Graph

Search for Another Location

Airport or City:

Trip Planner

Search our weather history database for the weather conditions in past years. The results will help you decide how hot, cold, wet, or windy it might be!

Date:

Astronomy

Feb. 20, 2013 Rise Set
Actual Time 7:15 AM CST 5:57 PM CST
Civil Twilight 6:45 AM CST 6:27 PM CST
Nautical Twilight 6:11 AM CST 7:02 PM CST
Astronomical Twilight 5:37 AM CST 7:36 PM CST
Moon 1:11 PM CST (2/20) 3:45 AM CST (2/20)
Length of Visible Light 11h 42m
Length of Day
10h 41m
Waxing Gibbous, 76% of the Moon is Illuminated
Feb 20
Waxing Gibbous
Feb 25
Full
Mar 4
Last Quarter
Mar 11
New
Mar 19
First Quarter

Hourly Weather History & Observations

Time (CST) Temp. Windchill Dew Point Humidity Pressure Visibility Wind Dir Wind Speed Gust Speed Precip Events Conditions
12:12 AM -14.8 °F -32.2 °F -18.4 °F 84% 30.40 in 10.0 mi North 8.1 mph - N/A   Clear
12:32 AM -14.8 °F -29.1 °F -20.2 °F 77% 30.41 in 10.0 mi North 5.8 mph - N/A   Clear
12:53 AM -14.8 °F -27.2 °F -20.2 °F 77% 30.41 in 10.0 mi North 4.6 mph - N/A   Clear
1:12 AM -16.6 °F -29.3 °F -20.2 °F 84% 30.42 in 10.0 mi NNW 4.6 mph - N/A   Clear
1:32 AM -16.6 °F -34.4 °F -20.2 °F 84% 30.42 in 10.0 mi NNW 8.1 mph - N/A   Clear
1:53 AM -16.6 °F -32.9 °F -20.2 °F 84% 30.42 in 10.0 mi NNW 6.9 mph - N/A   Clear
2:12 AM -16.6 °F -31.3 °F -20.2 °F 84% 30.43 in 10.0 mi NNW 5.8 mph - N/A   Clear
2:53 AM -16.6 °F -34.4 °F -22.0 °F 76% 30.43 in 10.0 mi North 8.1 mph - N/A   Clear
3:12 AM -18.4 °F -33.4 °F -22.0 °F 84% 30.43 in 10.0 mi North 5.8 mph - N/A   Clear
3:33 AM -18.4 °F -35.1 °F -23.8 °F 76% 30.42 in 10.0 mi North 6.9 mph - N/A   Clear
3:53 AM -18.4 °F -31.4 °F -23.8 °F 76% 30.42 in 10.0 mi NNE 4.6 mph - N/A   Clear
4:12 AM -18.4 °F -28.9 °F -23.8 °F 76% 30.42 in 10.0 mi NNW 3.5 mph - N/A   Clear
4:33 AM -18.4 °F -33.4 °F -23.8 °F 76% 30.42 in 10.0 mi North 5.8 mph - N/A   Clear
4:53 AM -18.4 °F -31.4 °F -23.8 °F 76% 30.42 in 10.0 mi NW 4.6 mph - N/A   Clear
5:12 AM -18.4 °F -28.9 °F -23.8 °F 76% 30.42 in 10.0 mi NNW 3.5 mph - N/A   Clear
5:33 AM -18.4 °F - -23.8 °F 76% 30.42 in 10.0 mi Calm Calm - N/A   Clear
5:53 AM -18.4 °F -28.9 °F -23.8 °F 76% 30.41 in 10.0 mi NE 3.5 mph - N/A   Clear
6:12 AM -20.2 °F - -25.6 °F 76% 30.42 in 10.0 mi Calm Calm - N/A   Clear
6:33 AM -20.2 °F - -25.6 °F 76% 30.42 in 10.0 mi Calm Calm - N/A   Clear
7:12 AM -20.2 °F -30.9 °F -25.6 °F 76% 30.43 in 10.0 mi NW 3.5 mph - N/A   Clear
7:33 AM -20.2 °F - -25.6 °F 76% 30.43 in 10.0 mi Calm Calm - N/A   Clear
7:52 AM -20.2 °F -35.5 °F -25.6 °F 76% 30.42 in 10.0 mi NE 5.8 mph - N/A   Clear
8:13 AM -18.4 °F -28.9 °F -23.8 °F 76% 30.42 in 10.0 mi NE 3.5 mph - N/A   Clear
8:33 AM -16.6 °F -29.3 °F -23.8 °F 70% 30.41 in 10.0 mi ENE 4.6 mph - N/A   Clear
8:52 AM -14.8 °F -24.8 °F -20.2 °F 77% 30.42 in 10.0 mi NW 3.5 mph - N/A   Clear
9:13 AM -13.0 °F - -20.2 °F 70% 30.42 in 10.0 mi Calm Calm - N/A   Clear
9:33 AM -11.2 °F - -18.4 °F 70% 30.42 in 10.0 mi Calm Calm - N/A   Clear
9:52 AM -9.4 °F - -16.6 °F 71% 30.42 in 10.0 mi Calm Calm - N/A   Clear
10:13 AM -9.4 °F -18.6 °F -16.6 °F 71% 30.43 in 10.0 mi WNW 3.5 mph - N/A   Clear
10:33 AM -7.6 °F - -14.8 °F 71% 30.43 in 10.0 mi Calm Calm - N/A   Clear
11:13 AM -4.0 °F - -13.0 °F 65% 30.44 in 10.0 mi Calm Calm - N/A   Clear
11:33 AM -2.2 °F - -11.2 °F 66% 30.43 in 10.0 mi Calm Calm - N/A   Clear
11:52 AM 1.4 °F -11.3 °F -7.6 °F 66% 30.43 in 10.0 mi SSW 6.9 mph - N/A   Clear
12:13 PM 1.4 °F -11.3 °F -7.6 °F 66% 30.43 in 10.0 mi South 6.9 mph - N/A   Clear
12:32 PM 1.4 °F -12.5 °F -7.6 °F 66% 30.42 in 10.0 mi South 8.1 mph - N/A   Clear
12:52 PM 1.4 °F -11.3 °F -5.8 °F 72% 30.42 in 10.0 mi South 6.9 mph - N/A   Clear
1:13 PM 3.2 °F -9.1 °F -4.0 °F 72% 30.41 in 10.0 mi SE 6.9 mph - N/A   Clear
1:32 PM 3.2 °F -9.1 °F -4.0 °F 72% 30.41 in 10.0 mi South 6.9 mph - N/A   Clear
1:52 PM 3.2 °F -9.1 °F -4.0 °F 72% 30.42 in 10.0 mi SSW 6.9 mph - N/A   Clear
2:13 PM 5.0 °F -5.6 °F -2.2 °F 72% 30.41 in 10.0 mi SSW 5.8 mph - N/A   Clear
2:53 PM 6.8 °F -3.5 °F -2.2 °F 67% 30.41 in 10.0 mi SSW 5.8 mph - N/A   Clear
3:13 PM 6.8 °F -0.1 °F -0.4 °F 72% 30.40 in 10.0 mi South 3.5 mph - N/A   Clear
3:32 PM 6.8 °F - -0.4 °F 72% 30.39 in 10.0 mi Calm Calm - N/A   Clear
3:53 PM 6.8 °F -3.5 °F -0.4 °F 72% 30.38 in 10.0 mi ESE 5.8 mph - N/A   Clear
4:12 PM 6.8 °F -2.0 °F -0.4 °F 72% 30.38 in 10.0 mi ESE 4.6 mph - N/A   Clear
4:32 PM 6.8 °F -3.5 °F -0.4 °F 72% 30.37 in 10.0 mi ESE 5.8 mph - N/A   Clear
4:53 PM 6.8 °F -2.0 °F -0.4 °F 72% 30.37 in 10.0 mi SE 4.6 mph - N/A   Clear
5:12 PM 6.8 °F -0.1 °F -0.4 °F 72% 30.37 in 10.0 mi ESE 3.5 mph - N/A   Clear
5:32 PM 6.8 °F - -0.4 °F 72% 30.37 in 10.0 mi Calm Calm - N/A   Clear
5:53 PM 6.8 °F -0.1 °F -0.4 °F 72% 30.36 in 10.0 mi SE 3.5 mph - N/A   Clear
6:12 PM 6.8 °F - -0.4 °F 72% 30.37 in 10.0 mi Calm Calm - N/A   Clear
6:33 PM 5.0 °F -2.1 °F -0.4 °F 78% 30.36 in 10.0 mi ESE 3.5 mph - N/A   Clear
7:12 PM 5.0 °F -5.6 °F -2.2 °F 72% 30.36 in 10.0 mi ESE 5.8 mph - N/A   Clear
7:33 PM 5.0 °F -2.1 °F -2.2 °F 72% 30.36 in 10.0 mi SE 3.5 mph - N/A   Clear
7:52 PM 5.0 °F - -2.2 °F 72% 30.35 in 10.0 mi Calm Calm - N/A   Clear
8:12 PM 3.2 °F -6.2 °F -2.2 °F 78% 30.34 in 10.0 mi ESE 4.6 mph - N/A   Clear
8:33 PM 3.2 °F -4.2 °F -2.2 °F 78% 30.34 in 10.0 mi SE 3.5 mph - N/A   Clear
8:52 PM 3.2 °F -9.1 °F -2.2 °F 78% 30.33 in 10.0 mi ESE 6.9 mph - N/A   Clear
9:12 PM 3.2 °F -6.2 °F -2.2 °F 78% 30.34 in 10.0 mi SE 4.6 mph - N/A   Clear
9:33 PM 3.2 °F -6.2 °F -2.2 °F 78% 30.34 in 10.0 mi SE 4.6 mph - N/A   Clear
9:52 PM 3.2 °F -6.2 °F -2.2 °F 78% 30.34 in 10.0 mi SE 4.6 mph - N/A   Clear
10:33 PM 3.2 °F -7.8 °F -2.2 °F 78% 30.34 in 10.0 mi SE 5.8 mph - N/A   Clear
10:52 PM 3.2 °F -6.2 °F -2.2 °F 78% 30.34 in 10.0 mi SE 4.6 mph - N/A   Clear
11:13 PM 3.2 °F -6.2 °F -2.2 °F 78% 30.34 in 10.0 mi SE 4.6 mph - N/A   Clear
11:33 PM 5.0 °F -5.6 °F -2.2 °F 72% 30.34 in 10.0 mi SE 5.8 mph - N/A   Clear
11:52 PM 6.8 °F -4.8 °F -2.2 °F 67% 30.34 in 10.0 mi SE 6.9 mph - N/A   Clear